User: anonymous   Login
Location: Cactus School
(34.5700°N, 118.0931°W)
Time: 15:50:19
(UTC-07:00)
Language:

Hubble Space Telescope - Orbit

View from above orbital plane
View from above orbital plane
View from above satellite
View from above satellite

Ground track
Ground track

The orbit data is extracted from the following two-line orbital elements,

1 20580U 90037B   18290.66877366 +.00000543 +00000-0 +22249-4 0  9998
2 20580 028.4706 025.3906 0002848 022.8705 091.0368 15.09113886363905
Epoch (UTC): 17 October 2018 16:03:02
Eccentricity: 0.0002848
inclination: 28.4706°
perigee height: 537 km
apogee height: 541 km
right ascension of ascending node: 25.3906°
argument of perigee: 22.8705°
revolutions per day: 15.09113886
mean anomaly at epoch: 91.0368°
orbit number at epoch: 36390

The dashed part of the orbit path shows where the satellite is in the earth's shadow,  

DLR